Location: Gravellona
(45.3333°N, 8.7667°E)
Time: 16:27:25
(UTC+00:00)

Daily predictions for brighter satellites

Satellite Brightness Start Highest point End
(mag) Time Altitude Azimuth Time Altitude Azimuth Time Altitude Azimuth
CSL-04 Rocket 4.3 17:54:41 10° SE 17:59:27 35° ENE 18:04:16 10° N
Cosmos 2181 Rocket 4.4 17:53:47 10° N 17:59:34 41° ENE 18:05:22 10° SE
BREEZE-M DEB (TANK) 3.9 17:59:02 10° WNW 18:02:51 67° NNE 18:17:21 10° E
H-2A R/B 3.3 18:07:35 10° S 18:11:53 61° W 18:16:19 10° NNW
CZ-4 R/B 1.3 18:10:20 10° SSE 18:14:12 85° W 18:18:03 10° NNW
Cosmos 1340 4.1 18:11:35 10° NNE 18:14:29 21° ENE 18:17:22 10° ESE
Cosmos 1733 Rocket 3.5 18:10:55 10° SSE 18:14:54 37° E 18:18:53 10° NNE
MetOp-A 4.4 18:10:11 10° SE 18:15:17 48° ENE 18:20:27 10° N
Cosmos 2278 Rocket 2.2 18:10:16 10° SSW 18:15:52 65° ESE 18:21:30 10° NNE
Cosmos 1709 Rocket 4.0 18:10:37 10° S 18:16:53 81° E 18:23:07 10° N
Genesis I 3.5 18:14:13 10° SW 18:18:06 74° NW 18:22:07 10° NNE
H-2A R/B 2.0 18:17:19 10° NNE 18:21:39 89° ESE 18:25:50 10° SSW
Cosmos 1356 Rocket 3.5 18:22:56 10° S 18:27:04 59° E 18:31:17 10° NNE
Cosmos 2208 Rocket 4.0 18:22:34 10° NNW 18:27:49 78° ENE 18:33:06 10° SSE
Cosmos 841 Rocket 4.5 18:23:27 10° NNW 18:28:32 50° WSW 18:33:33 10° S
IRS-1C Rocket 4.2 18:24:39 10° SSE 18:29:55 85° WSW 18:35:12 10° NNW
DMSP B5D2-2 4.0 18:24:48 10° NNE 18:30:07 75° ESE 18:35:24 10° S
Cosmos 1814 Rocket 4.3 18:25:06 10° NNW 18:30:28 76° WSW 18:35:47 10° SSE
SeaSat 1 2.4 18:26:50 10° SE 18:31:45 74° ENE 18:36:41 10° NNW
COSMOS 2455 4.0 18:27:16 10° NNW 18:32:23 28° NE 18:36:25 15° E
Okean O Rocket 4.3 18:30:22 10° SSW 18:33:52 23° W 18:37:23 10° NW
ARGOS 4.3 18:28:50 10° S 18:33:57 46° W 18:39:06 10° NNW
ERBS 2.1 18:37:22 10° SW 18:40:37 65° SE 18:43:38 12° NE
Cosmos 1743 4.3 18:37:32 10° SSW 18:41:09 39° WNW 18:44:48 10° N
Cosmos 1707 3.4 18:38:06 10° N 18:41:43 35° ENE 18:44:05 18° SE
Cosmos 1975 2.8 18:38:39 10° S 18:42:31 56° E 18:46:26 10° NNE
Cosmos 1238 Rocket 4.5 18:36:37 10° SSE 18:42:35 39° E 18:48:17 10° NNE
CSL-04 Debris 4.1 18:37:14 10° SSE 18:42:40 85° ENE 18:48:06 10° NNW
OBJECT-B 1.0 18:41:39 16° SE 18:43:57 47° ENE 18:47:04 10° N
Cosmos 1943 Rocket 3.1 18:40:09 10° SSE 18:44:26 23° ESE 18:48:46 10° NE
Cosmos 968 Rocket 3.4 18:39:39 10° S 18:44:49 66° ESE 18:50:03 10° NNE
USA 215 3.9 18:38:29 10° SSE 18:44:51 52° SW 18:51:14 10° WNW
USA 305 3.8 18:44:07 10° W 18:48:12 48° NNW 18:52:19 10° NE
Lacrosse 5 rocket 3.5 18:45:54 10° NW 18:49:22 21° N 18:52:32 11° ENE
ISS -2.9 18:49:01 10° SSW 18:51:59 30° SE 18:52:23 29° SE
CZ-2C R/B 4.4 18:47:47 10° N 18:52:43 36° WNW 18:57:43 10° SW
Cosmos 921 Rocket 3.1 18:49:39 10° NNW 18:54:02 79° WSW 18:58:17 10° SSE
Cosmos 1486 Rocket 4.1 18:49:35 10° S 18:54:40 54° ESE 18:59:49 10° NNE
Cosmos 1461 4.2 18:53:28 10° NNW 18:56:43 23° NE 18:57:53 20° ENE
SL-4 R/B 2.8 18:55:13 10° WNW 18:58:24 34° SW 19:00:24 19° SSE
USA 307 3.9 18:54:51 10° W 18:58:55 45° NNW 19:03:01 10° NE
Cosmos 1908 Rocket 3.9 18:58:00 10° SSE 19:02:14 44° E 19:06:31 10° NNE
Meteor 2-9 Rocket 4.5 18:56:47 10° SSW 19:02:37 78° WNW 19:08:31 10° N
Nadezhda 3 Rocket 4.2 18:57:36 10° N 19:03:32 47° ENE 19:07:20 21° SE
Cosmos 1842 4.1 19:00:58 10° NNW 19:04:49 52° W 19:08:38 10° S
USA 281 3.6 18:59:36 10° NE 19:05:36 36° ESE 19:11:32 10° S
SJ-6B 2.8 19:04:20 19° SSE 19:07:15 77° ENE 19:11:24 10° N
Cosmos 1689 Rocket 4.4 19:06:15 10° NNE 19:06:35 12° NNE 19:06:35 12° NNE
Cosmos 1400 Rocket 3.1 19:07:17 26° SSE 19:09:07 44° E 19:13:02 10° NNE
Cosmos 1378 Rocket 3.5 19:09:09 10° N 19:13:34 86° W 19:17:05 16° S
USA 306 4.2 19:11:51 10° W 19:15:47 37° NNW 19:19:11 13° NE
ATLAS CENTAUR R/B 2.9 19:12:09 10° NNW 19:16:03 26° NE 19:17:09 24° ENE
USA 308 4.2 19:14:00 10° W 19:17:58 38° NNW 19:21:18 14° NE
Cosmos 1674 3.2 19:14:46 10° N 19:18:01 39° ENE 19:18:01 39° ENE
CZ-3 Stage 3 4.4 19:04:08 10° SW 19:24:04 27° S 19:27:42 21° SSE
Inspiration4 2.6 19:19:57 10° SW 19:24:13 72° SSE 19:25:23 46° ENE
Cosmos 1674 Rocket 4.3 19:23:28 10° NNW 19:27:44 53° W 19:31:38 12° S
CZ-4B R/B 4.1 19:27:21 10° NNW 19:29:34 19° WNW 19:31:47 10° WSW
In-Cosmos 22 4.1 19:25:32 10° NNW 19:30:51 80° W 19:34:23 21° S
USA 186 3.3 19:30:09 23° SW 19:30:57 27° W 19:33:25 10° NW
Cosmos 2074 Rocket 4.2 19:25:06 10° SSW 19:31:18 74° W 19:37:36 10° N
Lacrosse 4 Rocket 3.6 19:31:34 10° WSW 19:34:57 25° NW 19:38:21 10° N
SPOT 3 Rocket 4.0 19:36:02 41° E 19:36:25 41° ENE 19:41:14 10° N
Cosmos 773 Rocket 4.3 19:31:50 10° N 19:36:54 47° ENE 19:37:33 45° E
Cosmos 2082 Rocket 3.1 19:33:09 10° NW 19:38:36 47° WSW 19:42:45 17° S
Resurs 01 Rocket 1.7 19:40:22 56° ENE 19:40:22 56° ENE 19:44:41 10° N
Helios 1A Rocket 3.5 19:49:39 41° SSW 19:50:42 54° W 19:54:45 10° NNW
Cosmos 1782 Rocket 3.5 19:52:42 80° NE 19:52:42 80° NE 19:57:00 10° N
Ariane Rocket 3.0 19:53:08 50° S 19:54:29 79° WSW 19:59:35 10° NNW
Terra 3.9 19:56:16 15° NE 19:56:16 15° NE 19:57:46 10° NNE
ERS-1 Rocket 4.5 19:59:20 23° NE 19:59:20 23° NE 20:02:14 10° N
Cosmos 2278 Rocket 4.5 19:55:52 10° WSW 20:00:25 24° NW 20:05:01 10° N
Cosmos 2297 3.8 19:57:07 10° SSW 20:02:47 77° WNW 20:08:32 10° NNE
Cosmos 1626 3.6 20:05:12 10° NNW 20:07:24 34° NNW 20:07:24 34° NNW
Cosmos 2369 Rocket 3.7 20:12:19 24° NE 20:12:19 24° NE 20:14:31 10° NE
Cosmos 1346 Rocket 3.7 20:05:32 10° NNW 20:08:28 47° NNW 20:08:28 47° NNW
SPOT 1/Viking Rocket 3.6 20:15:41 71° NNE 20:15:41 71° NNE 20:20:26 10° N
Landsat 7 4.0 20:16:04 67° W 20:16:04 67° W 20:20:45 10° NNW
Cosmos 962 Rocket 4.4 20:16:03 45° SSW 20:18:07 82° W 20:24:20 10° N
IGS 5A 4.4 20:19:05 44° WNW 20:19:05 44° WNW 20:22:36 10° NNW
COSMOS 2455 2.9 20:12:50 10° NW 20:18:50 68° WSW 20:19:33 62° SSW
Cosmos 1975 Rocket 3.8 20:18:27 10° NNW 20:22:05 50° WNW 20:22:05 50° WNW
Cosmos 1943 Rocket 2.7 20:22:20 10° SW 20:27:46 55° WNW 20:33:17 10° NNE
ISS -0.5 20:25:26 10° W 20:25:27 10° W 20:25:27 10° W
Lacrosse 5 rocket 2.9 20:25:04 10° NW 20:28:07 36° NNW 20:28:07 36° NNW
SPOT 5 4.0 20:43:03 41° NNE 20:43:03 41° NNE 20:46:38 10° N
USA 281 4.0 20:43:57 10° NNE 20:50:13 49° WNW 20:56:28 10° SW
SL-8 Rocket 4.2 20:52:19 66° W 20:52:28 66° W 20:58:46 10° N
Meteor 1-24 Rocket 4.5 20:49:15 10° NNW 20:52:51 45° NNW 20:52:51 45° NNW
ATLAS CENTAUR R/B 3.3 20:50:39 10° NW 20:53:17 32° WNW 20:53:17 32° WNW
Cosmos 1727 Rocket 4.4 20:52:03 10° N 20:57:07 58° N 20:57:07 58° N
Resurs 01 Rocket 4.3 21:17:56 15° WNW 21:17:56 15° WNW 21:19:51 10° NW
SJ 16-02 4.2 21:27:03 13° N 21:27:03 13° N 21:27:33 10° N
Cosmos 2297 Rocket 4.3 21:25:39 10° N 21:28:14 19° NNE 21:28:14 19° NNE
Terra 4.1 21:35:09 21° NNW 21:35:09 21° NNW 21:36:48 10° NNW
Cosmos 2227 Rocket 4.3 21:46:25 10° N 21:48:49 19° NNE 21:48:49 19° NNE
Cosmos 2369 Rocket 4.0 21:54:02 27° NW 21:54:02 27° NW 21:58:10 10° N
CENTAUR R/B 4.2 22:53:55 29° NNE 22:53:55 29° NNE 22:57:29 10° NE
ATLAS 3B R/B 4.4 23:50:47 23° NE 23:50:47 23° NE 23:53:17 10° NE
